sat.trackr.live / text

‹ back to catalog

STARLINK-11482 [DTC]

NORAD 62520 · 2025-004K

PAYLOAD ACTIVE UNKNOWN

§ Identity

Operator
Country
US
Launch date
2025-01-08
Launch site
AFETR
Launch vehicle
Mass (kg)
RCS (m²)

Purposes: comms

External: N2YO · Heavens-Above · Gunter

§ Orbital elements

Epoch: 2026-05-24T20:55:13.791360Z

Period
91.67 min
Inclination
43.0000°
Eccentricity
0.0003375
Mean motion
15.70933055 rev/d
Perigee alt
354.0 km
Apogee alt
358.5 km
Semi-major
6,734.4 km
B*
1.4488e-3
RAAN
331.1995°
Arg perigee
268.4763°
Mean anomaly
91.5718°
Rev number
7,919

§ Raw data

STARLINK-11482 [DTC]1 62520U 25004K   26144.87168740  .00190549  00000+0  14488-2 0  99982 62520  43.0000 331.1995 0003375 268.4763  91.5718 15.70933055 79194

JSON: /api/v1/satellites/62520 · /tle

For live sub-satellite position, see the globe view (requires WebGL).

§ Visibility from observer

Set your observer location to see the next 7 days of passes ≥ 10°. The values pass through the URL so the page stays shareable.

No JS? Fill the form by hand. The geolocation button needs JavaScript.